GW2923 Weather Reports


time (UTC)temp
C
wind
direction
speed
KPH
gust
KPH
rain 1hr
cm
rain 24hr
cm
rain mn
cm
humidity
%
barometer
mb
20260906172029 6 0 0.0 1.6 0.00 0.00 0.00 82 1013.4
20260906171549 6 0 0.0 0.0 0.00 0.00 0.00 81 1013.4
20260906171031 6 0 0.0 1.6 0.00 0.00 0.00 80 1013.3
20260906170530 6 0 0.0 3.2 0.00 0.00 0.00 79 1013.2
20260906170043 7 0 0.0 3.2 0.00 0.00 0.00 78 1013.1
20260906165530 7 0 0.0 4.8 0.00 0.00 0.00 77 1013.2
20260906165029 7 0 0.0 6.4 0.00 0.00 0.00 75 1013.2
20260906164543 8 310 1.6 6.4 0.00 0.00 0.00 73 1013.0
20260906164030 8 296 3.2 6.4 0.00 0.00 0.00 71 1013.1
20260906163529 8 339 1.6 6.4 0.00 0.00 0.00 70 1013.1
20260906163057 8 325 1.6 6.4 0.00 0.00 0.00 67 1013.0
20260906162529 8 0 1.6 6.4 0.00 0.00 0.00 67 1013.0
20260906162029 8 0 1.6 11.3 0.00 0.00 0.00 68 1013.0
20260906161549 8 326 3.2 11.3 0.00 0.00 0.00 65 1012.9
20260906161127 8 335 1.6 9.7 0.00 0.00 0.00 65 1012.9
20260906160530 8 338 3.2 19.3 0.00 0.00 0.00 65 1012.8
20260906160046 9 349 3.2 19.3 0.00 0.00 0.00 64 1012.8
20260906155530 9 336 4.8 19.3 0.00 0.00 0.00 63 1012.8
20260906155030 9 357 4.8 17.7 0.00 0.00 0.00 63 1012.7
20260906154546 9 326 3.2 20.9 0.00 0.00 0.00 63 1012.8
20260906154030 9 344 9.7 20.9 0.00 0.00 0.00 62 1012.7
20260906153530 10 37 6.4 19.3 0.00 0.00 0.00 63 1012.6
20260906153112 10 355 8.0 24.1 0.00 0.00 0.00 62 1012.6
20260906152531 10 313 6.4 24.1 0.00 0.00 0.00 65 1012.4
20260906152031 10 26 8.0 35.4 0.00 0.00 0.00 64 1012.4
20260906151557 10 30 11.3 35.4 0.00 0.00 0.00 64 1012.4
20260906151030 10 309 3.2 20.9 0.00 0.00 0.00 64 1012.4
20260906150530 10 286 6.4 20.9 0.00 0.00 0.00 64 1012.3
20260906150046 10 244 9.7 20.9 0.00 0.00 0.00 64 1012.3
20260906145530 10 325 4.8 19.3 0.00 0.00 0.00 66 1012.2
20260906145030 10 9 8.0 19.3 0.00 0.00 0.00 65 1012.2
20260906144555 10 274 4.8 16.1 0.00 0.00 0.00 65 1012.1
20260906144029 10 4 8.0 22.5 0.00 0.00 0.00 64 1012.0
20260906143531 10 295 8.0 22.5 0.00 0.00 0.00 62 1012.0
20260906143051 11 50 9.7 20.9 0.00 0.00 0.00 63 1011.9
20260906142529 11 318 4.8 24.1 0.00 0.00 0.00 63 1012.0
20260906142033 11 19 11.3 24.1 0.00 0.00 0.00 62 1012.0
20260906141552 11 342 6.4 22.5 0.00 0.00 0.00 63 1012.0
20260906141030 11 55 4.8 22.5 0.00 0.00 0.00 63 1011.8
20260906140530 11 14 11.3 22.5 0.00 0.00 0.00 62 1011.8
20260906140047 11 14 9.7 24.1 0.00 0.00 0.00 64 1011.8
20260906135530 11 326 8.0 24.1 0.00 0.00 0.00 63 1011.8
20260906135031 11 14 9.7 24.1 0.00 0.00 0.00 65 1011.7
20260906134605 11 39 4.8 24.1 0.00 0.00 0.00 65 1011.7
20260906134030 11 311 8.0 30.6 0.00 0.00 0.00 63 1011.7
20260906133533 11 24 11.3 30.6 0.00 0.00 0.00 61 1011.6
20260906133056 11 26 4.8 20.9 0.00 0.00 0.00 66 1011.5
20260906132530 11 334 9.7 22.5 0.00 0.00 0.00 62 1011.5
20260906132031 11 355 11.3 22.5 0.00 0.00 0.00 63 1011.4
20260906131549 11 303 9.7 25.7 0.00 0.00 0.00 67 1011.3
20260906131030 11 14 8.0 25.7 0.00 0.00 0.00 61 1011.4
20260906130530 11 20 9.7 22.5 0.00 0.00 0.00 62 1011.3
20260906130049 11 336 8.0 19.3 0.00 0.00 0.00 59 1011.2
20260906125530 12 245 3.2 17.7 0.00 0.00 0.00 61 1011.2
20260906125031 11 9 8.0 17.7 0.00 0.00 0.00 62 1011.1
20260906124544 11 324 8.0 29.0 0.00 0.00 0.00 65 1011.1
20260906124031 11 333 9.7 29.0 0.00 0.00 0.00 62 1011.0
20260906123533 11 290 9.7 29.0 0.00 0.00 0.00 61 1011.0
20260906123054 11 321 11.3 29.0 0.00 0.00 0.00 61 1011.0
20260906122530 11 39 11.3 30.6 0.00 0.00 0.00 60 1010.9
20260906122030 11 357 12.9 30.6 0.00 0.00 0.00 60 1010.9
20260906121552 11 324 11.3 24.1 0.00 0.00 0.00 60 1010.9
20260906121030 11 251 9.7 24.1 0.00 0.00 0.00 60 1010.9
20260906120533 11 338 12.9 27.4 0.00 0.00 0.00 62 1010.9
20260906120057 12 350 9.7 27.4 0.00 0.00 0.00 63 1010.7
20260906115530 12 345 8.0 22.5 0.00 0.00 0.00 61 1010.6
20260906115034 11 353 9.7 22.5 0.00 0.00 0.00 60 1010.7
20260906114543 12 321 8.0 20.9 0.00 0.00 0.00 63 1010.6
20260906114031 12 316 8.0 20.9 0.00 0.00 0.00 57 1010.6
20260906113532 11 33 9.7 22.5 0.00 0.00 0.00 64 1010.4
20260906113045 11 4 6.4 22.5 0.00 0.00 0.00 62 1010.5
20260906112534 11 349 9.7 22.5 0.00 0.00 0.00 61 1010.4
20260906112032 11 343 6.4 22.5 0.00 0.00 0.00 63 1010.4
20260906111551 11 358 6.4 29.0 0.00 0.00 0.00 64 1010.3
20260906111031 11 306 9.7 29.0 0.00 0.00 0.00 64 1010.2
20260906110531 11 321 12.9 27.4 0.00 0.00 0.00 64 1010.1
20260906110055 11 351 12.9 27.4 0.00 0.00 0.00 63 1010.1
20260906105530 11 282 11.3 24.1 0.00 0.00 0.00 63 1010.0
20260906105032 12 293 3.2 22.5 0.00 0.00 0.00 66 1009.9
20260906104545 11 357 8.0 22.5 0.00 0.00 0.00 67 1009.8
20260906104030 11 4 6.4 27.4 0.00 0.00 0.00 65 1009.6
20260906103534 11 255 8.0 27.4 0.00 0.00 0.00 63 1009.6
20260906103058 11 334 9.7 25.7 0.00 0.00 0.00 66 1009.6
20260906102532 11 258 4.8 25.7 0.00 0.00 0.00 66 1009.6
20260906102031 11 324 9.7 24.1 0.00 0.00 0.00 68 1009.6
20260906101544 11 306 6.4 24.1 0.00 0.00 0.00 68 1009.4
20260906101029 11 312 9.7 24.1 0.00 0.00 0.00 68 1009.4
20260906100534 11 283 12.9 25.7 0.00 0.00 0.00 67 1009.3
20260906100051 11 21 11.3 25.7 0.00 0.00 0.00 66 1009.3
20260906095530 11 0 6.4 22.5 0.00 0.00 0.00 66 1009.2
20260906095030 11 22 6.4 22.5 0.00 0.00 0.00 71 1009.2
20260906094544 11 311 8.0 22.5 0.00 0.00 0.00 69 1009.2
20260906094030 11 350 12.9 22.5 0.00 0.00 0.00 66 1009.1
20260906093534 11 49 9.7 19.3 0.00 0.00 0.00 68 1009.1
20260906093046 11 318 9.7 22.5 0.00 0.00 0.00 67 1009.0
20260906092530 10 306 6.4 22.5 0.00 0.00 0.00 68 1009.1
20260906092034 11 334 9.7 22.5 0.00 0.00 0.00 70 1009.1
20260906091550 10 320 8.0 19.3 0.00 0.00 0.00 71 1009.0
20260906091032 10 266 8.0 19.3 0.00 0.00 0.00 70 1009.0
20260906090533 11 276 4.8 24.1 0.00 0.00 0.00 69 1009.0
20260906090106 11 311 8.0 24.1 0.00 0.00 0.00 69 1008.9
20260906085530 10 345 9.7 24.1 0.00 0.00 0.00 70 1008.8
20260906085031 10 349 6.4 22.5 0.00 0.00 0.00 75 1008.8
20260906084545 10 56 8.0 25.7 0.00 0.00 0.00 72 1008.7
20260906084030 10 4 9.7 30.6 0.00 0.00 0.00 75 1008.7
20260906083531 10 328 12.9 30.6 0.00 0.00 0.00 74 1008.7
20260906083043 10 31 11.3 20.9 0.00 0.00 0.00 74 1008.6
20260906082533 10 272 8.0 22.5 0.00 0.00 0.00 75 1008.7
20260906082033 10 216 8.0 25.7 0.00 0.00 0.00 74 1008.6
20260906081557 10 349 11.3 25.7 0.00 0.00 0.00 74 1008.5
20260906081029 10 282 1.6 19.3 0.00 0.00 0.00 77 1008.6
20260906080532 9 4 6.4 24.1 0.00 0.00 0.00 77 1008.5
20260906080106 9 321 9.7 24.1 0.00 0.00 0.00 76 1008.5
20260906075532 10 302 4.8 24.1 0.00 0.00 0.00 78 1008.5
20260906075032 10 9 12.9 24.1 0.00 0.00 0.00 74 1008.4
20260906074603 10 14 11.3 24.1 0.00 0.00 0.00 76 1008.3
20260906074030 9 359 6.4 25.7 0.00 0.00 0.00 78 1008.3
20260906073530 9 347 6.4 25.7 0.00 0.00 0.00 76 1008.2
20260906073057 9 239 9.7 24.1 0.00 0.00 0.00 77 1008.3
20260906072530 9 316 6.4 24.1 0.00 0.00 0.00 79 1008.2
20260906072030 8 302 11.3 24.1 0.00 0.00 0.00 80 1008.2
20260906071553 8 19 9.7 40.2 0.00 0.00 0.00 81 1008.0
20260906071033 8 9 9.7 40.2 0.00 0.00 0.00 81 1008.0
20260906070533 8 345 4.8 19.3 0.00 0.00 0.00 81 1007.9
20260906070052 8 351 4.8 14.5 0.00 0.00 0.00 85 1007.8
20260906065532 8 339 1.6 17.7 0.00 0.00 0.00 86 1007.8
20260906065031 8 327 3.2 19.3 0.00 0.00 0.00 86 1007.8
20260906064548 8 288 4.8 19.3 0.00 0.00 0.00 86 1007.6
20260906064031 8 35 6.4 19.3 0.00 0.00 0.00 85 1007.5
20260906063530 8 251 4.8 19.3 0.00 0.00 0.00 85 1007.5
20260906063048 8 299 6.4 17.7 0.00 0.00 0.00 86 1007.5
20260906062530 8 294 6.4 17.7 0.00 0.00 0.00 88 1007.4
20260906062030 8 309 3.2 14.5 0.00 0.00 0.00 87 1007.4
20260906061546 7 329 4.8 14.5 0.00 0.00 0.00 88 1007.3
20260906061029 7 274 3.2 12.9 0.00 0.00 0.00 89 1007.3
20260906060533 7 276 3.2 14.5 0.00 0.00 0.00 90 1007.3
20260906060052 7 327 3.2 14.5 0.00 0.00 0.00 91 1007.2
20260906055532 7 275 4.8 12.9 0.00 0.00 0.00 92 1007.1
20260906055030 6 341 1.6 11.3 0.00 0.00 0.00 94 1007.0
20260906054550 6 342 3.2 11.3 0.00 0.00 0.00 95 1007.0
20260906054030 6 309 3.2 11.3 0.00 0.00 0.00 96 1006.9
20260906053531 5 258 1.6 9.7 0.00 0.00 0.00 96 1006.9
20260906053043 5 284 1.6 9.7 0.00 0.00 0.00 96 1006.7
20260906052535 5 286 3.2 9.7 0.00 0.00 0.00 96 1006.7
20260906052031 5 236 1.6 9.7 0.00 0.00 0.00 96 1006.7
20260906051600 5 292 3.2 9.7 0.00 0.00 0.00 96 1006.6
20260906051033 5 278 1.6 4.8 0.00 0.00 0.00 96 1006.7
20260906050530 4 0 0.0 0.0 0.00 0.00 0.00 96 1006.5
20260906045529 3 0 0.0 0.0 0.00 0.00 0.00 95 1006.4
20260906045030 3 0 0.0 0.0 0.00 0.00 0.00 95 1006.4
20260906044551 2 0 0.0 0.0 0.00 0.00 0.00 95 1006.4
20260906044031 2 0 0.0 0.0 0.00 0.00 0.00 94 1006.3
20260906043534 2 0 0.0 0.0 0.00 0.00 0.00 94 1006.2
20260906043052 2 0 0.0 0.0 0.00 0.00 0.00 94 1006.2
20260906042529 2 0 0.0 0.0 0.00 0.00 0.00 94 1006.1
20260906042030 2 0 0.0 0.0 0.00 0.00 0.00 94 1006.0
20260906041544 2 0 0.0 0.0 0.00 0.00 0.00 94 1006.0
20260906041030 2 0 0.0 0.0 0.00 0.00 0.00 94 1006.0
20260906040529 2 0 0.0 0.0 0.00 0.00 0.00 94 1006.0
20260906040053 2 0 0.0 0.0 0.00 0.00 0.00 94 1006.0
20260906035531 2 0 0.0 0.0 0.00 0.00 0.00 94 1005.9
20260906035029 2 0 0.0 0.0 0.00 0.00 0.00 94 1005.8
20260906034606 3 0 0.0 0.0 0.00 0.00 0.00 94 1005.7
20260906034031 3 0 0.0 0.0 0.00 0.00 0.00 94 1005.7
20260906033531 3 0 0.0 0.0 0.00 0.00 0.00 94 1005.6
20260906033045 3 0 0.0 0.0 0.00 0.00 0.00 94 1005.6
20260906032529 3 0 0.0 0.0 0.00 0.00 0.00 94 1005.6
20260906032030 3 0 0.0 0.0 0.00 0.00 0.00 94 1005.6
20260906031552 3 0 0.0 0.0 0.00 0.00 0.00 94 1005.6
20260906031029 3 0 0.0 0.0 0.00 0.00 0.00 94 1005.5
20260906030533 3 0 0.0 0.0 0.00 0.00 0.00 95 1005.3
20260906030050 3 0 0.0 0.0 0.00 0.00 0.00 95 1005.3
20260906025530 4 0 0.0 0.0 0.00 0.00 0.00 95 1005.2
20260906025030 4 0 0.0 0.0 0.00 0.00 0.00 95 1005.2
20260906024554 4 0 0.0 0.0 0.00 0.00 0.00 95 1005.1
20260906024030 4 0 0.0 0.0 0.00 0.00 0.00 95 1005.1
20260906023530 4 0 0.0 0.0 0.00 0.00 0.00 95 1005.1
20260906023056 4 0 0.0 0.0 0.00 0.00 0.00 95 1005.0
20260906022532 5 0 0.0 0.0 0.00 0.00 0.00 95 1005.0
20260906022030 5 0 0.0 0.0 0.00 0.00 0.00 95 1004.9
20260906021551 5 0 0.0 0.0 0.00 0.00 0.00 95 1004.9
20260906021029 5 0 0.0 0.0 0.00 0.00 0.00 95 1004.9
20260906020529 5 0 0.0 0.0 0.00 0.00 0.00 95 1004.8
20260906020058 5 0 0.0 0.0 0.00 0.00 0.00 95 1004.8
20260906015532 5 0 0.0 0.0 0.00 0.00 0.00 95 1004.8
20260906015031 5 0 0.0 0.0 0.00 0.00 0.00 95 1004.8
20260906014544 5 0 0.0 0.0 0.00 0.00 0.00 95 1004.7
20260906014032 6 0 0.0 0.0 0.00 0.00 0.00 95 1004.7
20260906013534 6 0 0.0 0.0 0.00 0.00 0.00 95 1004.6
20260906013104 6 0 0.0 0.0 0.00 0.00 0.00 95 1004.6
20260906012532 6 0 0.0 0.0 0.00 0.00 0.00 95 1004.5
20260906012029 6 0 0.0 0.0 0.00 0.00 0.00 95 1004.5
20260906011553 6 0 0.0 0.0 0.00 0.00 0.00 95 1004.5
20260906011031 6 0 0.0 0.0 0.00 0.00 0.00 95 1004.5
20260906010529 6 0 0.0 0.0 0.00 0.00 0.00 95 1004.4
20260906010049 6 0 0.0 0.0 0.00 0.00 0.00 95 1004.3
20260906005531 6 0 0.0 0.0 0.00 0.00 0.00 95 1004.3
20260906005033 6 0 0.0 0.0 0.00 0.00 0.00 95 1004.2
20260906004554 6 0 0.0 0.0 0.00 0.00 0.00 95 1004.3
20260906004032 6 0 0.0 0.0 0.00 0.00 0.00 95 1004.3
20260906003532 6 0 0.0 0.0 0.00 0.00 0.00 95 1004.1
20260906003050 6 0 0.0 0.0 0.00 0.00 0.00 95 1004.1
20260906002533 6 0 0.0 0.0 0.00 0.00 0.00 96 1004.2
20260906002034 6 0 0.0 0.0 0.00 0.00 0.00 96 1004.1
20260906001548 6 0 0.0 0.0 0.00 0.00 0.00 96 1004.0
20260906001035 6 0 0.0 0.0 0.00 0.00 0.00 96 1003.9
20260906000532 6 0 0.0 3.2 0.00 0.00 0.00 96 1004.0
20260906000052 6 0 0.0 4.8 0.00 0.00 0.00 96 1004.0
20260905235533 6 0 0.0 4.8 0.00 0.00 0.00 96 1004.1
20260905235033 6 0 0.0 3.2 0.00 0.00 0.00 96 1004.0
20260905234618 5 335 0.0 3.2 0.00 0.00 0.00 96 1004.1
20260905234032 5 295 0.0 6.4 0.00 0.00 0.00 96 1004.0
20260905233534 5 295 1.6 6.4 0.00 0.00 0.00 96 1004.0
20260905233050 5 255 0.0 4.8 0.00 0.00 0.00 95 1004.0
20260905232532 5 0 0.0 0.0 0.00 0.00 0.00 95 1004.0
20260905232032 5 0 0.0 0.0 0.00 0.00 0.00 95 1003.9
20260905231548 5 0 0.0 0.0 0.00 0.00 0.00 95 1003.9
20260905231033 5 0 0.0 0.0 0.00 0.00 0.00 95 1003.9
20260905230533 5 0 0.0 0.0 0.00 0.00 0.00 95 1003.8
20260905230045 5 0 0.0 0.0 0.00 0.00 0.00 95 1003.8
20260905225533 5 0 0.0 0.0 0.00 0.00 0.00 95 1003.7
20260905225033 5 0 0.0 0.0 0.00 0.00 0.00 95 1003.7
20260905224552 5 0 0.0 0.0 0.00 0.00 0.00 95 1003.7
20260905224034 5 0 0.0 0.0 0.00 0.00 0.00 95 1003.7
20260905223532 5 0 0.0 0.0 0.00 0.00 0.00 95 1003.8
20260905223052 5 0 0.0 0.0 0.00 0.00 0.00 95 1003.7
20260905222534 5 0 0.0 0.0 0.00 0.00 0.00 95 1003.7
20260905222032 5 0 0.0 0.0 0.00 0.00 0.00 95 1003.6
20260905221550 5 0 0.0 1.6 0.00 0.00 0.00 95 1003.6
20260905221035 5 0 0.0 3.2 0.00 0.00 0.00 95 1003.5
20260905220533 5 0 0.0 3.2 0.00 0.00 0.00 95 1003.5
20260905215534 6 255 0.0 3.2 0.00 0.00 0.00 95 1003.6
20260905215034 6 255 0.0 3.2 0.00 0.00 0.00 95 1003.5
20260905214549 6 0 0.0 4.8 0.00 0.00 0.00 95 1003.5
20260905214033 6 249 0.0 4.8 0.00 0.00 0.00 95 1003.4
20260905213530 6 278 1.6 4.8 0.00 0.00 0.00 95 1003.3
20260905213047 6 272 0.0 6.4 0.00 0.00 0.00 95 1003.2
20260905212530 6 272 3.2 6.4 0.00 0.00 0.00 95 1003.2
20260905212033 6 276 1.6 6.4 0.00 0.00 0.00 95 1003.2
20260905211542 6 0 0.0 0.0 0.00 0.00 0.00 95 1003.2
20260905211031 6 0 0.0 0.0 0.00 0.00 0.00 95 1003.1
20260905210529 6 0 0.0 0.0 0.00 0.00 0.00 95 1003.0
20260905210101 6 0 0.0 0.0 0.00 0.00 0.00 95 1003.0
20260905205529 6 0 0.0 0.0 0.00 0.00 0.00 95 1003.0
20260905205030 6 0 0.0 0.0 0.00 0.00 0.00 95 1003.0
20260905204554 6 0 0.0 0.0 0.00 0.00 0.00 95 1002.8
20260905204029 6 0 0.0 0.0 0.00 0.00 0.00 95 1002.8
20260905203531 6 0 0.0 0.0 0.00 0.00 0.00 95 1002.7
20260905203102 6 0 0.0 0.0 0.00 0.00 0.00 95 1002.7
20260905202533 6 0 0.0 0.0 0.00 0.00 0.00 95 1002.6
20260905202033 6 0 0.0 0.0 0.00 0.00 0.00 95 1002.6
20260905201552 6 0 0.0 3.2 0.00 0.00 0.00 95 1002.6
20260905201030 6 0 0.0 3.2 0.00 0.00 0.00 95 1002.5
20260905200530 6 4 0.0 4.8 0.00 0.00 0.00 95 1002.5
20260905200051 6 0 0.0 4.8 0.00 0.00 0.00 95 1002.4
20260905195532 6 4 0.0 4.8 0.00 0.00 0.00 95 1002.3
20260905195034 5 360 1.6 4.8 0.00 0.00 0.00 95 1002.2
20260905194547 5 0 0.0 4.8 0.00 0.00 0.00 95 1002.2
20260905194030 5 0 0.0 4.8 0.00 0.00 0.00 95 1002.1
20260905193530 5 324 0.0 4.8 0.00 0.00 0.00 94 1002.1
20260905193043 5 22 1.6 4.8 0.00 0.00 0.00 94 1002.2
20260905192533 5 330 0.0 1.6 0.00 0.00 0.00 94 1002.2
20260905192033 5 0 0.0 3.2 0.00 0.00 0.00 94 1002.1
20260905191552 5 0 0.0 3.2 0.00 0.00 0.00 94 1002.1
20260905191033 5 319 0.0 3.2 0.00 0.00 0.00 94 1002.1
20260905190529 5 0 0.0 1.6 0.00 0.00 0.00 93 1002.0
20260905190049 5 0 0.0 1.6 0.00 0.00 0.00 94 1002.0
20260905185533 5 0 0.0 3.2 0.00 0.00 0.00 94 1001.9
20260905185035 6 0 0.0 4.8 0.00 0.00 0.00 93 1001.9
20260905184557 6 342 0.0 4.8 0.00 0.00 0.00 93 1001.8
20260905184031 6 0 1.6 4.8 0.00 0.00 0.00 93 1001.8
20260905183529 6 352 1.6 4.8 0.00 0.00 0.00 93 1001.6
20260905183055 6 9 0.0 3.2 0.00 0.00 0.00 93 1001.6
20260905182534 6 0 0.0 4.8 0.00 0.00 0.00 92 1001.5
20260905182030 6 315 0.0 4.8 0.00 0.00 0.00 92 1001.5
20260905181553 6 0 0.0 4.8 0.00 0.00 0.00 92 1001.5
20260905181029 6 0 0.0 4.8 0.00 0.00 0.00 91 1001.5
20260905180529 7 354 1.6 4.8 0.00 0.00 0.00 91 1001.4
20260905180049 7 351 0.0 6.4 0.00 0.00 0.00 90 1001.4
20260905175530 7 359 1.6 6.4 0.00 0.00 0.00 90 1001.3
20260905175030 7 347 1.6 8.0 0.00 0.00 0.00 90 1001.3
20260905174548 7 9 1.6 8.0 0.00 0.00 0.00 90 1001.3
20260905174031 7 35 1.6 9.7 0.00 0.00 0.00 89 1001.2
20260905173532 8 355 1.6 9.7 0.00 0.00 0.00 88 1001.2
20260905173052 8 26 1.6 9.7 0.00 0.00 0.00 88 1001.1
20260905172530 8 52 3.2 9.7 0.00 0.00 0.00 88 1001.1